Weather History for Hickory, NC

Change the Weather History Date:

Thursday, September 11, 2014

  Actual Average Record
Temperature  
Mean Temperature 76 °F -  
Max Temperature 88 °F 81 °F 93 °F (1962)
Min Temperature 66 °F 60 °F 45 °F (1949)
Cooling Degree Days 12    
Growing Degree Days 26 (Base 50)    
Moisture  
Dew Point 68 °F    
Average Humidity 82    
Maximum Humidity 93    
Minimum Humidity 55    
Precipitation  
Precipitation 0.19 in - - ()
Sea Level Pressure  
Sea Level Pressure 29.99 in    
Wind  
Wind Speed 4 mph (SW)    
Max Wind Speed 9 mph    
Max Gust Speed -    
Visibility 10 miles    
Events Rain    
Averages and records for this station are not official NWS values.
T = Trace of Precipitation, MM = Missing Value Source: NWS Daily Summary

Daily Weather History Graph

Daily Weather History Graph

Search for Another Location

Airport:

Trip Planner

Search our weather history database for the weather conditions in past years. The results will help you decide how hot, cold, wet, or windy it might be!

Date:

Astronomy

Sep. 11, 2014 Rise Set
Actual Time 7:05 AM EDT 7:38 PM EDT
Civil Twilight 6:39 AM EDT 8:04 PM EDT
Nautical Twilight 6:09 AM EDT 8:34 PM EDT
Astronomical Twilight 5:38 AM EDT 9:05 PM EDT
Moon 9:23 PM EDT (9/11) 9:53 AM EDT (9/11)
Length of Visible Light 13h 24m
Length of Day
12h 33m
Waning Gibbous, 91% of the Moon is Illuminated
Sep 11
Waning Gibbous
Sep 15
Last Quarter
Sep 24
New
Oct 1
First Quarter
Oct 8
Full

Hourly Weather History & Observations

Time (EDT) Temp. Heat Index Dew Point Humidity Pressure Visibility Wind Dir Wind Speed Gust Speed Precip Events Conditions
12:53 AM 70.0 °F - 64.9 °F 84% 30.02 in 10.0 mi SSW 5.8 mph - N/A   Overcast
1:53 AM 69.1 °F - 64.0 °F 84% 30.02 in 10.0 mi SSW 3.5 mph - N/A   Mostly Cloudy
2:33 AM 70.0 °F - 64.9 °F 84% 30.08 in 10.0 mi Calm Calm - N/A   Overcast
2:40 AM 70.0 °F - 64.9 °F 84% 30.08 in 10.0 mi Calm Calm - N/A   Overcast
2:53 AM 69.1 °F - 64.9 °F 87% 30.01 in 10.0 mi South 3.5 mph - N/A   Overcast
3:53 AM 68.0 °F - 64.0 °F 87% 30.00 in 10.0 mi SSW 4.6 mph - N/A   Clear
4:53 AM 66.9 °F - 64.0 °F 90% 30.00 in 10.0 mi South 5.8 mph - N/A   Partly Cloudy
5:53 AM 66.9 °F - 64.0 °F 90% 30.00 in 10.0 mi SSW 3.5 mph - N/A   Clear
7:53 AM 68.0 °F - 64.9 °F 90% 30.01 in 10.0 mi Calm Calm - N/A   Clear
8:53 AM 71.1 °F - 66.0 °F 84% 30.01 in 10.0 mi Calm Calm - N/A   Partly Cloudy
9:53 AM 73.9 °F - 68.0 °F 82% 30.00 in 10.0 mi SSW 5.8 mph - N/A   Clear
10:53 AM 79.0 °F - 69.1 °F 72% 30.00 in 10.0 mi Variable 4.6 mph - N/A   Clear
11:53 AM 82.0 °F 85.9 °F 70.0 °F 67% 29.98 in 10.0 mi Variable 3.5 mph - N/A   Clear
12:53 PM 84.9 °F 89.4 °F 70.0 °F 61% 29.96 in 10.0 mi South 8.1 mph - N/A   Clear
1:53 PM 86.0 °F 90.1 °F 69.1 °F 57% 29.95 in 10.0 mi Variable 4.6 mph - N/A   Mostly Cloudy
2:53 PM 87.1 °F 91.3 °F 69.1 °F 55% 29.93 in 10.0 mi SSW 9.2 mph - N/A   Overcast
3:53 PM 84.9 °F 88.8 °F 69.1 °F 59% 29.92 in 10.0 mi WSW 8.1 mph - N/A   Overcast
4:53 PM 78.1 °F - 69.1 °F 74% 29.93 in 10.0 mi SSW 8.1 mph - N/A   Overcast
5:53 PM 75.9 °F - 72.0 °F 87% 29.94 in 10.0 mi South 5.8 mph - N/A   Overcast
6:53 PM 78.1 °F - 71.1 °F 79% 29.94 in 10.0 mi SSW 4.6 mph - N/A   Partly Cloudy
7:53 PM 75.0 °F - 72.0 °F 90% 29.95 in 10.0 mi Calm Calm - N/A   Partly Cloudy
8:53 PM 73.9 °F - 72.0 °F 93% 29.98 in 10.0 mi North 8.1 mph - N/A   Scattered Clouds
9:06 PM 73.9 °F - 72.0 °F 93% 30.04 in 1.2 mi NW 3.5 mph - 0.13 in Rain Light Rain
9:18 PM 73.9 °F - 71.1 °F 91% 30.04 in 4.0 mi North 4.6 mph - 0.18 in Rain Light Rain
9:53 PM 73.0 °F - 71.1 °F 93% 29.98 in 10.0 mi NW 4.6 mph - 0.19 in   Clear
10:53 PM 72.0 °F - 70.0 °F 93% 29.99 in 10.0 mi Calm Calm - N/A   Clear
11:53 PM 72.0 °F - 70.0 °F 93% 29.98 in 10.0 mi Calm Calm - N/A   Clear